Voltar ao catálogo

STARLINK-5124

AtivoComunicaçõesVLEO
NORAD 54011·PAYLOAD·🇺🇸 United States

Lançado Oct 5, 2022 de Vandenberg Space Force Base

Loading…

Próximas Passagens (próximas 24 horas)

TLE

AtualizadoSource: CelesTrak SupGP

Época: Sep 14, 2026, 21:54 UTC

1 54011C 22125AZ  26257.91298611  .00025832  00000+0  76326-3 0  2575
2 54011  53.1598  63.5964 0001163  78.1294  89.6801 15.34376064    11

Acompanhe STARLINK-5124 em tempo real com AllMySat

Download on the App Store